Home   Weather   St. Paul   Past weeks
Flag for USA

Past Weather in St. Paul, Minnesota, USA — Yesterday and Last 2 Weeks

Now
62 °F

Sunny.


Feels Like: 62 °F
Forecast: 64 / 49 °F
Wind: 7 mph from West

Location: St. Paul Downtown Holman Field

Current Time: Oct 19, 2019 at 6:25:03 pm

Latest Report: Oct 19, 2019 at 5:53 pm


Visibility: 10 mi

Pressure: 29.66 "Hg

Humidity: 37%

Dew Point: 35 °F

Location of St. PaulLocation

Past Weather in St. Paul — Graph

°F

St. Paul Temperature Yesterday

Maximum temperature yesterday: 67 °F (at 3:53 pm)
Minimum temperature yesterday: 45 °F (at 3:53 am)
Average temperature yesterday: 55 °F

High & Low Weather Summary for the Past Weeks

 TemperatureHumidityPressure
High72 °F (Oct 9, 1:53 pm)97% (Oct 5, 4:10 pm)30.36 "Hg (Oct 5, 4:10 pm)
Low33 °F (Oct 12, 7:53 am)33% (Oct 19, 4:53 pm)29.54 "Hg (Oct 18, 4:53 pm)
Average48 °F73%29.89 "Hg
* Reported Oct 4 4:21 pm — Oct 19 4:53 pm, St. Paul. Weather by CustomWeather, © 2019

Note: Actual official high and low records may vary slightly from our data, if they occured in-between our weather recording intervals... More about our weather records

Advertising

St. Paul Weather History for the Previous 24 Hours

Scroll right to see more
 ConditionsComfort  
Time TempWeatherWind HumidityBarometerVisibility
4:53 pm
Sat, Oct 19
65 °FSunny.10 mph33%29.65 "Hg10 mi
3:53 pm65 °FSunny.8 mph45%29.65 "Hg10 mi
2:53 pm63 °FSunny.7 mph50%29.66 "Hg10 mi
1:53 pm61 °FSunny.8 mph56%29.67 "Hg10 mi
12:53 pm57 °FSunny.7 mph67%29.69 "Hg10 mi
11:53 am53 °FSunny.7 mph74%29.70 "Hg10 mi
10:53 am51 °FOvercast.3 mph86%29.70 "Hg10 mi
9:53 am50 °FLight rain. Mostly cloudy.7 mph89%29.69 "Hg10 mi
8:53 am50 °FLight rain. Fog.3 mph86%29.70 "Hg5 mi
7:53 am51 °FMore clouds than sun.6 mph83%29.63 "Hg10 mi
6:53 am52 °FOvercast.6 mph77%29.62 "Hg10 mi
5:53 am53 °FPassing clouds.3 mph74%29.65 "Hg10 mi
4:53 am53 °FClear.No wind72%29.61 "Hg10 mi
3:53 am54 °FClear.8 mph69%29.60 "Hg10 mi
2:53 am55 °FClear.13 mph67%29.60 "Hg10 mi
1:53 am55 °FClear.15 mph67%29.59 "Hg10 mi
12:53 am57 °FClear.16 mph62%29.59 "Hg10 mi
11:53 pm
Fri, Oct 18
58 °FClear.21 mph60%29.59 "Hg10 mi
10:53 pm59 °FPassing clouds.22 mph58%29.58 "Hg10 mi
9:53 pm61 °FOvercast.21 mph52%29.58 "Hg10 mi
8:53 pm62 °FOvercast.21 mph50%29.59 "Hg10 mi
7:53 pm63 °FOvercast.21 mph48%29.58 "Hg10 mi
6:53 pm63 °FClear.24 mph48%29.58 "Hg10 mi
Weather by CustomWeather, © 2019

See weather overview